sat.trackr.live / text

‹ back to catalog

STARLINK-36445

NORAD 67313 · 2026-002J

PAYLOAD ACTIVE UNKNOWN

§ Identity

Operator
Country
US
Launch date
2026-01-04
Launch site
AFETR
Launch vehicle
Mass (kg)
RCS (m²)

Purposes: comms

External: N2YO · Heavens-Above · Gunter

§ Orbital elements

Epoch: 2026-05-24T23:40:44.341248Z

Period
94.27 min
Inclination
43.0016°
Eccentricity
0.0001618
Mean motion
15.27583648 rev/d
Perigee alt
481.9 km
Apogee alt
484.1 km
Semi-major
6,861.2 km
B*
6.3601e-4
RAAN
254.7220°
Arg perigee
280.3850°
Mean anomaly
79.6819°
Rev number
2,290

§ Raw data

STARLINK-364451 67313U 26002J   26144.98662432  .00017282  00000+0  63601-3 0  99952 67313  43.0016 254.7220 0001618 280.3850  79.6819 15.27583648 22902

JSON: /api/v1/satellites/67313 · /tle

For live sub-satellite position, see the globe view (requires WebGL).

§ Visibility from observer

Set your observer location to see the next 7 days of passes ≥ 10°. The values pass through the URL so the page stays shareable.

No JS? Fill the form by hand. The geolocation button needs JavaScript.